Location: Casteau
(50.5142°N, 4.0161°E)
Time: 02:39:56
(UTC+00:00)

Explorer 11/Cluster Stage 4 - Pass Details

Date: 09 August 2021
Orbit: 467 x 1257 km, 28.8° (Epoch: 18 September)

Event Time Altitude Azimuth Distance (km) Brightness Sun altitude
Rises 06:33:50 0° 218° (SW) 3,541 9.6 19.1°
Reaches altitude 10° 06:38:54 10° 184° (S) 2,822 9.4 19.9°
Maximum altitude 06:40:29 11° 170° (S) 2,822 9.6 20.2°
Drops below altitude 10° 06:42:06 10° 157° (SSE) 2,942 9.9 20.4°
Sets 06:47:55 0° 125° (SE) 4,075 11.1 21.3°
